Theta_e
355 356 354 353 351 351 355 356 354 358 358 353 351 353 353 354 358 358 356 349 353 356 356 355 356 357 357 356 355 356 356 356 356 357 357 357 356 357 355 356 356 356 357
357 355 352 349 352 352 353 354 358 360 354 351 350 353 354 356 358 357 355 357 351 353 354 354 357 359 358 356 355 356 356 356 356 356 357 354 353 354 354 355 354 354 355
356 355 352 350 351 354 356 361 359 362 358 354 349 352 354 355 356 357 356 354 355 352 353 357 358 357 355 354 356 357 357 356 356 356 354 352 350 349 352 352 351 351 350
356 355 353 350 355 360 362 361 355 349 351 357 352 350 352 354 351 355 355 357 358 354 356 358 357 357 357 357 357 357 357 355 355 355 354 352 349 349 350 349 348 348 348
355 354 350 355 359 359 363 360 360 358 357 358 352 354 356 353 353 352 355 357 358 358 359 358 358 357 355 355 356 355 357 358 356 357 355 353 352 350 350 347 346 347 348
352 349 349 361 360 358 359 357 359 360 360 356 350 350 350 352 353 354 354 356 357 358 359 359 359 356 356 358 359 357 357 357 356 356 356 355 352 351 350 350 348 348 347
351 354 353 362 360 360 360 359 359 356 356 357 353 353 350 352 356 358 358 356 357 357 358 356 358 360 357 354 359 356 357 356 354 354 356 354 354 352 351 349 348 347 346
352 356 360 360 362 358 360 360 360 355 357 358 352 349 341 345 350 353 356 357 358 358 357 355 358 359 356 359 361 355 354 357 357 356 356 355 354 353 351 350 349 346 345
353 355 357 359 361 361 356 359 360 358 353 358 357 349 341 338 346 351 351 354 357 357 357 357 359 355 357 360 358 357 352 355 355 356 357 357 355 354 352 351 349 347 346
355 357 359 359 361 359 359 356 360 359 362 352 357 356 355 353 343 341 351 354 356 353 356 358 358 359 361 362 357 353 352 353 353 354 355 357 357 355 354 353 351 349 348
358 357 360 360 361 358 360 360 357 363 365 361 361 355 357 356 355 350 343 348 354 357 359 361 357 358 361 363 363 353 351 350 351 351 352 352 353 354 354 354 354 352 350
351 357 359 361 362 360 361 359 359 361 364 361 363 358 356 352 350 348 345 348 346 354 357 360 357 357 359 363 358 352 349 348 347 346 345 346 347 348 350 351 354 355 353
351 354 359 360 359 362 361 361 361 361 362 363 361 356 360 356 357 353 349 347 348 353 356 357 356 358 360 361 359 355 348 345 343 341 342 343 345 347 350 347 350 353 356
352 358 356 359 361 361 360 362 358 359 362 360 360 360 364 357 359 357 351 352 345 348 352 352 357 358 361 360 358 350 348 341 339 339 340 341 342 344 347 350 351 352 354
353 357 358 359 360 361 361 362 358 360 362 361 361 361 365 357 359 359 358 354 354 340 345 352 351 360 360 357 355 355 352 338 337 337 337 338 339 340 342 344 345 346 348
355 355 356 357 359 360 361 361 360 360 361 359 361 361 363 360 359 358 358 357 354 356 348 351 355 357 359 357 353 354 348 339 335 335 335 335 336 338 339 340 341 342 343
356 355 355 355 358 358 360 361 360 359 358 359 361 360 360 363 360 362 363 366 361 353 353 356 357 359 358 352 349 348 345 344 338 333 332 331 331 333 334 334 336 337 339
356 356 356 356 356 357 358 360 358 357 358 357 357 358 357 355 360 363 357 362 359 360 356 351 359 359 356 357 348 345 343 340 337 330 329 328 328 328 328 328 328 329 330
355 355 357 357 357 356 356 357 357 358 357 357 357 357 358 358 357 355 362 362 363 359 360 356 357 361 350 346 340 337 335 334 332 329 327 326 326 325 325 324 323 321 320
356 355 356 356 356 356 356 355 355 356 356 355 357 359 359 359 359 360 360 361 361 361 361 357 358 356 354 347 340 334 330 331 330 332 329 328 327 325 324 324 323 320 317
356 357 356 357 357 354 351 353 353 353 353 352 356 359 360 357 349 351 356 362 361 358 359 356 356 349 349 342 340 338 335 330 329 330 328 326 327 323 320 321 322 319 317
355 356 356 356 355 352 339 337 346 352 353 353 352 354 359 352 351 340 339 340 349 361 356 352 353 347 355 350 346 341 334 328 326 330 327 323 324 321 322 319 316 316 316
351 354 356 356 356 356 335 333 337 351 353 354 355 354 354 354 352 359 342 336 336 335 340 359 353 353 358 359 356 343 338 336 339 332 331 323 323 321 319 317 315 315 315
347 349 353 355 356 356 334 330 335 352 354 356 357 358 359 359 359 358 359 357 357 357 353 352 355 358 358 358 356 353 348 342 333 333 333 322 324 318 315 317 317 314 314
345 346 349 353 355 357 329 328 335 352 353 355 357 359 359 359 344 334 356 355 356 355 335 326 327 329 333 334 344 349 339 333 327 324 328 324 320 316 316 317 318 314 312
345 348 349 350 342 351 331 325 332 351 351 351 355 357 337 346 333 327 348 355 352 354 352 342 338 331 332 337 331 351 345 336 332 324 326 323 319 319 316 321 318 314 313
Wind_Speed
2 2 2 1 0 1 2 2 4 4 4 4 4 5 6 4 3 2 1 6 8 3 6 3 1 4 4 5 5 5 7 7 8 8 9 10 10 9 9 9 9 9 9
1 3 3 1 1 1 2 3 4 3 3 3 4 5 6 4 3 2 3 1 4 3 2 4 3 5 5 5 3 3 5 4 5 6 7 7 6 7 7 7 7 7 6
3 3 2 1 0 0 4 3 3 1 2 3 3 2 3 2 1 1 1 4 2 3 1 3 5 4 3 2 1 4 4 4 6 7 6 6 4 4 6 6 5 6 6
3 3 2 1 0 1 2 1 2 1 2 2 2 1 2 4 4 3 2 2 2 1 5 3 3 3 3 3 4 4 5 4 5 6 5 5 3 3 4 4 4 4 4
3 2 2 1 1 1 2 2 1 2 3 3 2 0 1 2 0 3 2 3 2 0 1 6 2 0 1 1 3 3 6 6 6 6 6 5 5 4 5 4 4 5 5
3 3 2 1 0 0 1 2 3 2 2 4 4 2 1 1 1 1 3 2 3 3 2 4 4 5 1 3 4 4 6 6 6 7 7 7 6 6 6 6 5 5 5
5 3 1 1 1 0 2 2 3 4 1 3 3 1 3 3 3 2 2 3 4 5 4 4 3 2 3 3 2 2 5 4 0 3 6 7 7 7 6 6 6 5 5
6 4 2 0 1 0 2 2 3 3 1 3 3 1 1 4 4 5 5 3 3 3 4 5 3 3 3 2 3 2 2 5 3 1 2 5 6 7 7 7 7 6 6
7 5 4 3 1 2 3 3 2 3 3 1 3 3 1 3 1 2 3 2 2 3 3 4 4 4 4 3 4 4 4 5 5 4 1 5 8 8 8 8 8 7 6
6 6 6 5 3 2 3 3 2 3 2 3 2 2 3 3 2 1 3 3 2 3 3 3 5 4 4 4 3 5 5 5 6 6 5 5 6 7 8 8 8 8 7
6 6 7 6 5 4 3 3 4 2 2 2 2 1 1 0 1 2 2 2 2 1 1 1 3 2 4 3 3 6 6 6 6 7 7 7 7 5 2 6 9 9 8
4 5 7 6 5 5 4 3 3 4 4 3 3 1 1 2 1 1 1 1 3 1 1 2 3 2 3 3 3 8 6 7 7 7 7 6 6 5 5 6 5 11 10
6 7 7 7 7 6 5 4 3 4 4 3 3 2 1 2 2 1 2 2 2 1 0 3 2 3 3 4 4 4 7 7 8 7 6 5 6 7 7 3 4 4 11
6 5 8 8 8 7 6 4 4 4 5 5 4 4 3 3 3 2 3 2 3 3 2 2 4 4 4 4 5 4 7 7 7 6 5 6 7 8 9 8 5 6 3
4 4 6 8 9 8 7 6 5 6 6 5 4 5 5 3 3 4 3 4 3 4 2 3 3 4 4 4 5 4 5 7 7 5 5 6 7 7 7 8 8 8 9
6 6 7 9 9 8 8 8 6 6 5 4 3 5 5 4 4 4 4 3 4 3 3 1 2 3 3 3 7 5 7 7 7 6 5 6 6 7 7 8 8 9 9
9 9 8 8 9 9 9 9 9 7 7 7 6 6 6 5 5 4 3 4 4 5 3 2 2 4 5 7 6 6 6 5 5 6 5 6 6 7 8 8 8 9 10
11 10 8 7 8 8 7 9 10 9 9 9 8 7 7 5 7 5 5 5 5 4 4 6 4 4 3 6 6 6 4 4 4 6 6 6 6 7 8 8 8 8 9
11 11 10 9 9 9 8 8 8 8 8 8 8 8 9 6 7 7 6 5 5 5 5 4 2 2 3 3 4 4 5 5 4 9 8 7 8 8 8 8 9 7 9
11 11 11 11 10 9 8 8 8 9 8 8 9 9 9 8 8 7 6 8 7 5 5 5 4 4 4 4 3 3 3 3 5 5 4 6 6 10 10 8 9 8 8
10 11 11 11 11 10 8 9 9 9 8 9 9 9 10 9 7 8 6 7 7 7 6 6 6 6 5 3 6 4 4 4 3 3 5 5 5 4 5 6 9 7 8
10 11 12 10 11 10 10 12 11 9 9 9 10 11 10 8 10 11 12 12 9 8 9 8 7 10 8 7 6 5 4 3 3 7 5 4 4 4 4 3 5 6 7
10 11 11 10 11 11 9 12 13 10 10 10 10 10 10 9 10 11 10 8 9 11 11 8 10 10 8 9 8 9 9 6 5 7 7 6 4 4 3 4 5 6 7
9 10 10 10 10 10 10 12 12 11 10 12 12 12 12 11 11 10 10 10 11 9 11 10 12 11 10 8 10 10 9 6 5 4 7 4 5 2 3 3 5 7 9
9 9 8 10 11 12 11 12 9 10 11 12 12 13 13 12 12 12 12 12 13 12 7 5 6 7 5 6 8 7 7 7 3 4 6 3 4 3 4 4 4 9 10
9 8 9 11 11 11 9 10 10 8 10 9 11 12 11 14 10 11 12 12 13 12 11 9 8 6 7 7 8 11 9 8 5 3 6 5 5 5 4 4 5 7 7
Wind_Direction
156 158 146 173 139 229 257 278 320 349 346 353 353 348 346 314 223 215 197 202 226 173 124 85 341 182 171 179 207 222 211 196 209 221 228 232 231 231 232 237 235 235 236
159 148 149 148 86 198 267 312 313 289 9 4 6 12 354 334 193 179 119 143 248 244 121 125 155 160 177 187 188 248 217 216 231 230 239 232 240 224 215 219 221 224 224
139 144 151 198 317 114 297 298 311 308 349 13 347 354 350 322 254 165 24 359 80 185 215 127 140 152 176 171 219 228 232 232 238 235 219 219 201 184 190 199 204 215 220
158 167 175 168 87 31 339 22 16 11 330 335 326 298 284 288 297 262 329 7 54 95 148 112 132 159 195 186 225 254 274 265 249 240 220 207 189 175 146 170 199 209 215
161 209 120 102 43 77 50 14 340 322 349 347 293 326 275 286 121 91 40 73 90 85 128 127 168 131 346 281 248 267 276 271 254 242 229 210 188 169 175 184 196 203 203
150 163 103 359 197 351 84 25 328 356 338 338 326 17 67 77 292 108 107 121 130 154 187 226 178 165 166 318 264 266 289 281 249 220 206 202 184 177 176 185 191 212 209
158 141 159 274 182 48 37 356 342 336 355 347 306 190 120 83 82 103 121 117 148 181 191 214 210 218 178 221 246 284 325 324 262 191 183 178 175 177 179 185 188 202 220
171 173 200 291 76 52 349 334 359 332 359 351 320 296 30 137 90 72 89 104 124 164 186 204 189 204 236 244 90 164 54 32 56 47 187 171 178 184 189 192 197 205 211
182 192 205 258 295 313 324 326 345 331 349 347 330 341 228 43 345 102 120 118 175 195 207 203 192 169 197 218 183 135 72 54 48 37 24 199 194 195 199 201 204 211 214
192 197 197 203 202 262 290 303 300 320 290 309 258 103 15 341 27 58 129 118 206 230 195 180 200 189 188 205 122 74 100 80 69 50 26 30 234 199 210 216 218 215 214
200 197 205 201 194 215 225 262 284 277 262 283 298 186 166 91 67 330 335 103 153 120 201 247 168 169 192 193 171 116 117 99 82 67 54 41 30 21 316 246 224 222 222
208 215 216 207 216 212 220 241 258 238 244 240 262 276 342 324 45 280 280 302 331 166 155 214 229 234 192 179 161 115 129 115 102 93 79 59 39 12 332 295 276 220 214
210 220 224 218 217 212 217 225 227 235 247 240 251 283 220 258 267 318 291 345 319 352 239 186 170 186 158 181 132 173 127 117 107 95 81 60 37 17 356 302 245 265 219
219 205 214 224 224 216 215 220 228 238 244 247 236 249 247 242 229 234 290 309 299 273 241 207 162 181 170 183 108 144 124 112 116 109 91 65 46 34 30 47 68 39 232
227 218 216 222 224 216 208 210 236 232 233 241 243 246 237 241 232 236 220 260 231 294 295 153 165 188 164 160 142 164 135 112 95 84 77 73 59 56 54 61 62 64 73
225 248 243 233 227 222 218 212 218 225 235 237 249 247 246 246 246 231 230 222 231 221 268 353 154 146 181 149 134 148 112 130 103 97 88 82 72 67 65 62 63 67 73
218 232 234 252 248 228 215 216 222 222 218 230 225 241 252 259 264 253 240 219 204 225 241 256 202 134 158 138 146 128 161 118 119 103 97 89 82 76 74 73 69 74 73
226 217 226 236 256 254 256 228 218 227 222 233 241 242 250 258 265 260 256 258 242 222 256 265 200 150 181 164 154 156 150 117 118 105 103 103 96 90 83 82 79 80 86
228 227 223 223 239 254 249 253 258 241 230 239 251 248 249 237 258 263 254 251 254 234 224 253 246 159 119 137 128 112 129 130 128 129 123 116 110 102 96 89 88 81 80
236 225 227 230 230 237 244 246 238 239 238 241 248 251 244 235 246 258 254 244 236 234 224 237 249 225 183 148 147 153 169 168 171 160 105 105 114 99 92 86 87 84 86
240 241 228 224 230 231 225 220 238 240 244 255 247 245 242 245 247 253 260 255 240 240 236 236 242 243 206 174 193 167 180 158 156 155 146 163 155 137 109 84 95 95 98
231 235 236 229 235 233 207 199 214 239 243 246 251 255 253 234 240 226 225 242 261 236 239 238 240 238 238 211 193 179 146 160 195 191 177 166 161 159 136 111 111 114 110
236 229 233 227 235 240 213 206 202 237 244 246 246 247 249 245 228 250 218 222 233 245 255 264 248 244 238 215 197 192 188 193 216 141 186 173 178 156 133 142 164 131 124
236 234 228 221 232 239 218 220 217 236 240 243 245 247 248 251 247 243 247 244 243 233 227 228 240 255 245 249 216 208 201 171 84 154 174 159 167 144 153 162 177 159 143
232 237 238 232 222 233 214 218 210 230 237 239 239 241 241 246 246 211 242 250 251 245 188 229 274 300 267 220 220 167 166 172 157 173 192 137 149 117 171 174 153 162 155
242 236 235 231 230 240 214 221 205 234 235 237 240 244 226 244 253 204 226 244 248 246 235 207 219 226 214 198 191 213 189 203 168 162 181 160 146 154 159 172 175 180 169